,,,PA_Meas_PMT16A,,PR_Meas_QMR101_102,,RH_Meas_QMH101,,SR_Meas_QMS101,,TA_Meas_QMH101,,GenWind,,GenWind,
date,time,status,PA,status,PR,status,RH,status,SR,status,TA,status,DirAvg,status,SpdAvg,
2009-07-24, 00:00:04,VALID,1011.11,VALID,0,VALID,93.1638,VALID,0,VALID,23.2051,VALID,126,VALID,0.633203,
2009-07-24, 00:01:04,VALID,1011.13,VALID,0,VALID,93.1562,VALID,0,VALID,23.2264,VALID,127,VALID,0.696094,
2009-07-24, 00:02:04,VALID,1011.13,VALID,0,VALID,93.1562,VALID,0,VALID,23.2476,VALID,153,VALID,0.816797,
2009-07-24, 00:03:04,VALID,1011.13,VALID,0,VALID,93.1638,VALID,0,VALID,23.2051,VALID,138,VALID,0.592188,
2009-07-24, 00:04:04,VALID,1011.14,VALID,0,VALID,93.141,VALID,0,VALID,23.2264,VALID,139,VALID,0.679297,
2009-07-24, 00:05:04,VALID,1011.16,VALID,0,VALID,93.1486,VALID,0,VALID,23.2264,VALID,140,VALID,0.433984,
2009-07-24, 00:06:04,VALID,1011.17,VALID,0,VALID,93.1105,VALID,0,VALID,23.2654,VALID,148,VALID,0.491016,
2009-07-24, 00:07:04,VALID,1011.17,VALID,0,VALID,93.1105,VALID,0,VALID,23.2459,VALID,161,VALID,0.591406,
2009-07-24, 00:08:04,VALID,1011.15,VALID,0,VALID,93.1181,VALID,0,VALID,23.2459,VALID,161,VALID,0.382813,
2009-07-24, 00:09:04,VALID,1011.16,VALID,0,VALID,93.0876,VALID,0,VALID,23.2848,VALID,161,VALID,0.318359,
2009-07-24, 00:10:04,VALID,1011.15,VALID,0,VALID,93.0723,VALID,0,VALID,23.2654,VALID,161,VALID,0.48125,
2009-07-24, 00:11:04,VALID,1011.15,VALID,0,VALID,93.0799,VALID,0,VALID,23.3061,VALID,161,VALID,0.272266,
2009-07-24, 00:12:04,VALID,1011.15,VALID,0,VALID,93.0647,VALID,0,VALID,23.2848,VALID,161,VALID,0.423828,
2009-07-24, 00:13:04,VALID,1011.14,VALID,0,VALID,93.0876,VALID,0,VALID,23.3238,VALID,159,VALID,0.327344,
2009-07-24, 00:14:04,VALID,1011.15,VALID,0,VALID,93.0647,VALID,0,VALID,23.3238,VALID,142,VALID,0.405469,
2009-07-24, 00:15:04,VALID,1011.15,VALID,0,VALID,93.0647,VALID,0,VALID,23.3433,VALID,132,VALID,0.345703,
2009-07-24, 00:16:04,VALID,1011.15,VALID,0,VALID,93.0418,VALID,0,VALID,23.3415,VALID,124,VALID,0.577344,
2009-07-24, 00:17:04,VALID,1011.14,VALID,0,VALID,93.0418,VALID,0.105969,VALID,23.361,VALID,124,VALID,0.458203,
2009-07-24, 00:18:04,VALID,1011.13,VALID,0,VALID,93.0494,VALID,0.105969,VALID,23.3805,VALID,122,VALID,0.466406,
2009-07-24, 00:19:04,VALID,1011.13,VALID,0,VALID,93.0723,VALID,0.105969,VALID,23.3805,VALID,119,VALID,0.423828,
2009-07-24, 00:20:04,VALID,1011.14,VALID,0,VALID,93.0494,VALID,0.105969,VALID,23.4,VALID,105,VALID,0.726172,
2009-07-24, 00:21:04,VALID,1011.12,VALID,0,VALID,93.0494,VALID,0.105969,VALID,23.4,VALID,101,VALID,0.4625,
2009-07-24, 00:22:04,VALID,1011.14,VALID,0,VALID,93.0418,VALID,0.105969,VALID,23.4194,VALID,125,VALID,0.642969,
2009-07-24, 00:23:04,VALID,1011.17,VALID,0,VALID,93.0189,VALID,0.105969,VALID,23.4194,VALID,124,VALID,0.614062,
2009-07-24, 00:24:04,VALID,1011.2,VALID,0,VALID,93.0494,VALID,0.105969,VALID,23.4194,VALID,150,VALID,0.822266,
2009-07-24, 00:25:04,VALID,1011.19,VALID,0,VALID,93.0342,VALID,0,VALID,23.4194,VALID,151,VALID,0.6,
2009-07-24, 00:26:04,VALID,1011.19,VALID,0,VALID,93.0189,VALID,0.105969,VALID,23.4,VALID,145,VALID,0.596484,
2009-07-24, 00:27:04,VALID,1011.17,VALID,0,VALID,93.0037,VALID,0.105969,VALID,23.4194,VALID,144,VALID,0.611328,
2009-07-24, 00:28:04,VALID,1011.19,VALID,0,VALID,92.9961,VALID,0.105969,VALID,23.4194,VALID,135,VALID,0.663672,
2009-07-24, 00:29:04,VALID,1011.18,VALID,0,VALID,92.9961,VALID,0.105969,VALID,23.4194,VALID,137,VALID,0.296094,
2009-07-24, 00:30:04,VALID,1011.18,VALID,0,VALID,92.9808,VALID,0.105969,VALID,23.4389,VALID,137,VALID,0,
2009-07-24, 00:31:04,VALID,1011.2,VALID,0,VALID,92.9656,VALID,0.105969,VALID,23.4194,VALID,137,VALID,0,
2009-07-24, 00:32:04,VALID,1011.2,VALID,0,VALID,92.9579,VALID,0.105969,VALID,23.3982,VALID,169,VALID,0.750391,
2009-07-24, 00:33:04,VALID,1011.22,VALID,0,VALID,92.9732,VALID,0,VALID,23.4,VALID,170,VALID,0.616016,
2009-07-24, 00:34:04,VALID,1011.21,VALID,0,VALID,92.9656,VALID,0.105969,VALID,23.4,VALID,169,VALID,0.852734,
2009-07-24, 00:35:04,VALID,1011.22,VALID,0,VALID,92.9503,VALID,0,VALID,23.4,VALID,168,VALID,1.10625,
2009-07-24, 00:36:04,VALID,1011.2,VALID,0,VALID,92.9351,VALID,0.105969,VALID,23.4017,VALID,187,VALID,0.921484,
2009-07-24, 00:37:04,VALID,1011.2,VALID,0,VALID,92.9427,VALID,0.105969,VALID,23.4,VALID,180,VALID,0.820703,
2009-07-24, 00:38:04,VALID,1011.21,VALID,0,VALID,92.9274,VALID,0,VALID,23.3805,VALID,167,VALID,1.06914,
2009-07-24, 00:39:04,VALID,1011.2,VALID,0,VALID,92.9274,VALID,0.105969,VALID,23.3592,VALID,161,VALID,0.420703,
2009-07-24, 00:40:04,VALID,1011.21,VALID,0,VALID,92.9198,VALID,0.105969,VALID,23.4,VALID,161,VALID,0.836719,
2009-07-24, 00:41:04,VALID,1011.19,VALID,0,VALID,92.9274,VALID,0.105969,VALID,23.4,VALID,158,VALID,0.463281,
2009-07-24, 00:42:04,VALID,1011.22,VALID,0,VALID,92.9274,VALID,0,VALID,23.4,VALID,142,VALID,0.622266,
2009-07-24, 00:43:04,VALID,1011.19,VALID,0,VALID,92.9274,VALID,0,VALID,23.4,VALID,141,VALID,0.885156,
2009-07-24, 00:44:04,VALID,1011.25,VALID,0,VALID,92.9046,VALID,0.105969,VALID,23.3805,VALID,155,VALID,1.13633,
2009-07-24, 00:45:04,VALID,1011.21,VALID,0,VALID,92.9274,VALID,0.105969,VALID,23.4,VALID,164,VALID,0.732422,
2009-07-24, 00:46:04,VALID,1011.22,VALID,0,VALID,92.9046,VALID,0,VALID,23.4,VALID,144,VALID,1.25859,
2009-07-24, 00:47:04,VALID,1011.19,VALID,0,VALID,92.9122,VALID,0,VALID,23.3805,VALID,176,VALID,1.14414,
2009-07-24, 00:48:04,VALID,1011.17,VALID,0,VALID,92.9198,VALID,0.105969,VALID,23.3805,VALID,148,VALID,0.885938,
2009-07-24, 00:49:04,VALID,1011.14,VALID,0,VALID,92.9351,VALID,0.105969,VALID,23.361,VALID,160,VALID,0.974219,
2009-07-24, 00:50:04,VALID,1011.13,VALID,0,VALID,92.9198,VALID,0.105969,VALID,23.361,VALID,143,VALID,1.05156,
2009-07-24, 00:51:04,VALID,1011.11,VALID,0,VALID,92.9046,VALID,0.105969,VALID,23.361,VALID,187,VALID,0.969922,
2009-07-24, 00:52:04,VALID,1011.08,VALID,0,VALID,92.9046,VALID,0.105969,VALID,23.3203,VALID,166,VALID,1.11797,
2009-07-24, 00:53:04,VALID,1011.03,VALID,0,VALID,92.8817,VALID,0.105969,VALID,23.3415,VALID,174,VALID,1.36641,
2009-07-24, 00:54:04,VALID,1011.01,VALID,0,VALID,92.8817,VALID,0,VALID,23.322,VALID,162,VALID,0.672656,
2009-07-24, 00:55:04,VALID,1010.95,VALID,0,VALID,92.8436,VALID,0,VALID,23.322,VALID,180,VALID,1.18477,
2009-07-24, 00:56:04,VALID,1010.96,VALID,0,VALID,92.7978,VALID,0.105969,VALID,23.2831,VALID,153,VALID,1.26367,
2009-07-24, 00:57:04,VALID,1010.95,VALID,0,VALID,92.7749,VALID,0,VALID,23.2831,VALID,171,VALID,1.31133,
2009-07-24, 00:58:04,VALID,1010.95,VALID,0,VALID,92.7139,VALID,0.105969,VALID,23.2636,VALID,161,VALID,1.38633,
2009-07-24, 00:59:04,VALID,1010.97,VALID,0,VALID,92.6987,VALID,0,VALID,23.2831,VALID,170,VALID,1.27109,
2009-07-24, 01:00:04,VALID,1010.94,VALID,0,VALID,92.7215,VALID,0.105969,VALID,23.2831,VALID,189,VALID,1.52148,
2009-07-24, 01:01:04,VALID,1010.92,VALID,0,VALID,92.7063,VALID,0,VALID,23.2848,VALID,184,VALID,1.79102,
2009-07-24, 01:02:04,VALID,1010.89,VALID,0,VALID,92.5995,VALID,0,VALID,23.2264,VALID,199,VALID,2.51055,
2009-07-24, 01:03:04,VALID,1010.89,VALID,0,VALID,92.5309,VALID,0,VALID,23.1874,VALID,172,VALID,1.67734,
2009-07-24, 01:04:04,VALID,1010.86,VALID,0,VALID,92.4623,VALID,0,VALID,23.1485,VALID,166,VALID,2.05664,
2009-07-24, 01:05:04,VALID,1010.8,VALID,0,VALID,92.4089,VALID,0,VALID,23.1095,VALID,159,VALID,2.28477,
2009-07-24, 01:06:04,VALID,1010.78,VALID,0,VALID,92.3479,VALID,0,VALID,23.09,VALID,170,VALID,1.57422,
2009-07-24, 01:07:04,VALID,1010.84,VALID,0,VALID,92.3097,VALID,0,VALID,23.0511,VALID,167,VALID,3.23789,
2009-07-24, 01:08:04,VALID,1010.85,VALID,0,VALID,92.2564,VALID,0,VALID,23.0511,VALID,181,VALID,3.0582,
2009-07-24, 01:09:04,VALID,1010.76,VALID,0,VALID,92.2259,VALID,0,VALID,22.9926,VALID,159,VALID,2.58516,
2009-07-24, 01:10:04,VALID,1010.67,VALID,0,VALID,92.1877,VALID,0,VALID,22.9731,VALID,192,VALID,2.72383,
2009-07-24, 01:11:04,VALID,1010.7,VALID,0,VALID,92.0886,VALID,0,VALID,22.9536,VALID,171,VALID,2.58711,
2009-07-24, 01:12:04,VALID,1010.75,VALID,0,VALID,92.0733,VALID,0,VALID,22.9342,VALID,170,VALID,2.0707,
2009-07-24, 01:13:04,VALID,1010.73,VALID,0,VALID,92.0886,VALID,0,VALID,22.9342,VALID,171,VALID,2.76016,
2009-07-24, 01:14:04,VALID,1010.63,VALID,0,VALID,92.1115,VALID,0,VALID,22.9147,VALID,183,VALID,1.1375,
2009-07-24, 01:15:04,VALID,1010.56,VALID,0,VALID,92.1039,VALID,0,VALID,22.8952,VALID,165,VALID,1.52969,
2009-07-24, 01:16:04,VALID,1010.53,VALID,0,VALID,92.0581,VALID,0.105969,VALID,22.8545,VALID,180,VALID,2.38242,
2009-07-24, 01:17:04,VALID,1010.51,VALID,0,VALID,91.9666,VALID,0,VALID,22.835,VALID,144,VALID,2.0332,
2009-07-24, 01:18:04,VALID,1010.59,VALID,0,VALID,91.9208,VALID,0,VALID,22.835,VALID,171,VALID,2.17969,
2009-07-24, 01:19:04,VALID,1010.64,VALID,0,VALID,91.9361,VALID,0,VALID,22.8155,VALID,161,VALID,2.83437,
2009-07-24, 01:20:04,VALID,1010.59,VALID,0,VALID,91.9818,VALID,0.105969,VALID,22.7961,VALID,158,VALID,2.04492,
2009-07-24, 01:21:04,VALID,1010.55,VALID,0,VALID,92.0428,VALID,0,VALID,22.7766,VALID,178,VALID,1.63594,
2009-07-24, 01:22:04,VALID,1010.56,VALID,0,VALID,92.02,VALID,0,VALID,22.7571,VALID,156,VALID,2.13984,
2009-07-24, 01:23:04,VALID,1010.61,VALID,0,VALID,92.0047,VALID,0.105969,VALID,22.7571,VALID,167,VALID,3.20547,
2009-07-24, 01:24:04,VALID,1010.62,VALID,0,VALID,91.9895,VALID,0,VALID,22.7376,VALID,156,VALID,1.8957,
2009-07-24, 01:25:04,VALID,1010.52,VALID,0,VALID,92.0428,VALID,0.105969,VALID,22.7376,VALID,133,VALID,0.979297,
2009-07-24, 01:26:04,VALID,1010.5,VALID,0,VALID,92.0886,VALID,0,VALID,22.7182,VALID,141,VALID,1.31914,
2009-07-24, 01:27:04,VALID,1010.46,VALID,0,VALID,92.1496,VALID,0,VALID,22.6987,VALID,118,VALID,0.732813,
2009-07-24, 01:28:04,VALID,1010.52,VALID,0,VALID,92.1725,VALID,0,VALID,22.6987,VALID,145,VALID,1.45742,
2009-07-24, 01:29:04,VALID,1010.55,VALID,0,VALID,92.1877,VALID,0,VALID,22.6792,VALID,161,VALID,2.3125,
2009-07-24, 01:30:04,VALID,1010.52,VALID,0,VALID,92.1496,VALID,0,VALID,22.6809,VALID,166,VALID,1.55742,
2009-07-24, 01:31:04,VALID,1010.48,VALID,0,VALID,92.1572,VALID,0.105969,VALID,22.6597,VALID,123,VALID,1.30313,
2009-07-24, 01:32:04,VALID,1010.44,VALID,0,VALID,92.0733,VALID,0.105969,VALID,22.6208,VALID,194,VALID,0.938672,
2009-07-24, 01:33:04,VALID,1010.45,VALID,0,VALID,92.0047,VALID,0.105969,VALID,22.6402,VALID,133,VALID,1.19883,
2009-07-24, 01:34:04,VALID,1010.44,VALID,0,VALID,91.9818,VALID,0.105969,VALID,22.6208,VALID,139,VALID,1.19219,
2009-07-24, 01:35:04,VALID,1010.44,VALID,0,VALID,91.9742,VALID,0.105969,VALID,22.6208,VALID,128,VALID,1.31211,
2009-07-24, 01:36:04,VALID,1010.43,VALID,0,VALID,92.0047,VALID,0,VALID,22.6013,VALID,156,VALID,1.00117,
2009-07-24, 01:37:04,VALID,1010.41,VALID,0,VALID,91.9666,VALID,0,VALID,22.6013,VALID,161,VALID,1.25273,
2009-07-24, 01:38:04,VALID,1010.44,VALID,0,VALID,91.9513,VALID,0.105969,VALID,22.6013,VALID,168,VALID,1.77852,
2009-07-24, 01:39:04,VALID,1010.42,VALID,0,VALID,91.898,VALID,0.105969,VALID,22.5818,VALID,144,VALID,1.48008,
2009-07-24, 01:40:04,VALID,1010.44,VALID,0,VALID,91.8446,VALID,0.105969,VALID,22.5818,VALID,169,VALID,1.61758,
2009-07-24, 01:41:04,VALID,1010.41,VALID,0,VALID,91.8217,VALID,0.105969,VALID,22.5818,VALID,134,VALID,0.898828,
2009-07-24, 01:42:04,VALID,1010.35,VALID,0,VALID,91.7759,VALID,0.105969,VALID,22.5818,VALID,148,VALID,1.36797,
2009-07-24, 01:43:04,VALID,1010.36,VALID,0,VALID,91.7454,VALID,0.105969,VALID,22.5818,VALID,124,VALID,0.835156,
2009-07-24, 01:44:04,VALID,1010.35,VALID,0,VALID,91.6997,VALID,0.105969,VALID,22.5623,VALID,127,VALID,0.689844,
2009-07-24, 01:45:04,VALID,1010.4,VALID,0,VALID,91.6311,VALID,0.105969,VALID,22.5606,VALID,125,VALID,0.164063,
2009-07-24, 01:46:04,VALID,1010.48,VALID,0,VALID,91.6616,VALID,0.105969,VALID,22.5606,VALID,125,VALID,0.630078,
2009-07-24, 01:47:04,VALID,1010.53,VALID,0,VALID,91.8217,VALID,0.105969,VALID,22.5996,VALID,114,VALID,0.860156,
2009-07-24, 01:48:04,VALID,1010.49,VALID,0,VALID,91.8675,VALID,0.105969,VALID,22.6013,VALID,53,VALID,1.29102,
2009-07-24, 01:49:04,VALID,1010.49,VALID,0,VALID,91.8751,VALID,0.105969,VALID,22.5801,VALID,45,VALID,1.4918,
2009-07-24, 01:50:04,VALID,1010.54,VALID,0,VALID,91.8751,VALID,0.105969,VALID,22.6013,VALID,41,VALID,1.00586,
2009-07-24, 01:51:04,VALID,1010.56,VALID,0,VALID,91.8293,VALID,0.105969,VALID,22.5623,VALID,58,VALID,0.921484,
2009-07-24, 01:52:04,VALID,1010.55,VALID,0,VALID,91.898,VALID,0.105969,VALID,22.5429,VALID,63,VALID,0.94375,
2009-07-24, 01:53:04,VALID,1010.53,VALID,0,VALID,91.9285,VALID,0.105969,VALID,22.5429,VALID,38,VALID,0.671484,
2009-07-24, 01:54:04,VALID,1010.52,VALID,0,VALID,92.0123,VALID,0.105969,VALID,22.5039,VALID,37,VALID,1.30156,
2009-07-24, 01:55:04,VALID,1010.48,VALID,0,VALID,92.0505,VALID,0.105969,VALID,22.5039,VALID,55,VALID,1.01172,
2009-07-24, 01:56:04,VALID,1010.55,VALID,0,VALID,92.1115,VALID,0.105969,VALID,22.4844,VALID,95,VALID,0.627344,
2009-07-24, 01:57:04,VALID,1010.56,VALID,0,VALID,92.1954,VALID,0.105969,VALID,22.465,VALID,94,VALID,0.689062,
2009-07-24, 01:58:04,VALID,1010.54,VALID,0,VALID,92.2487,VALID,0.105969,VALID,22.465,VALID,65,VALID,0.673828,
2009-07-24, 01:59:04,VALID,1010.52,VALID,0,VALID,92.3174,VALID,0.105969,VALID,22.4243,VALID,76,VALID,0.760938,
2009-07-24, 02:00:04,VALID,1010.5,VALID,0,VALID,92.3555,VALID,0.105969,VALID,22.426,VALID,37,VALID,0.736719,
2009-07-24, 02:01:04,VALID,1010.48,VALID,0,VALID,92.3936,VALID,0,VALID,22.4082,VALID,92,VALID,0.096875,
2009-07-24, 02:02:04,VALID,1010.49,VALID,0,VALID,92.447,VALID,0,VALID,22.4277,VALID,54,VALID,0.544922,
2009-07-24, 02:03:04,VALID,1010.46,VALID,0,VALID,92.4546,VALID,0,VALID,22.4082,VALID,99,VALID,0.866406,
2009-07-24, 02:04:04,VALID,1010.48,VALID,0,VALID,92.4699,VALID,0,VALID,22.3887,VALID,57,VALID,0.928125,
2009-07-24, 02:05:04,VALID,1010.46,VALID,0,VALID,92.4699,VALID,0,VALID,22.3887,VALID,54,VALID,1.05742,
2009-07-24, 02:06:04,VALID,1010.47,VALID,0,VALID,92.4699,VALID,0,VALID,22.3676,VALID,73,VALID,1.20859,
2009-07-24, 02:07:04,VALID,1010.45,VALID,0,VALID,92.508,VALID,0,VALID,22.3481,VALID,78,VALID,1.21406,
2009-07-24, 02:08:04,VALID,1010.46,VALID,0,VALID,92.5233,VALID,0,VALID,22.3693,VALID,91,VALID,0.9875,
2009-07-24, 02:09:04,VALID,1010.49,VALID,0,VALID,92.5538,VALID,0,VALID,22.3498,VALID,75,VALID,0.494922,
2009-07-24, 02:10:04,VALID,1010.48,VALID,0,VALID,92.5766,VALID,0,VALID,22.371,VALID,77,VALID,0.664844,
2009-07-24, 02:11:04,VALID,1010.47,VALID,0,VALID,92.6071,VALID,0,VALID,22.3693,VALID,70,VALID,0.435156,
2009-07-24, 02:12:04,VALID,1010.45,VALID,0,VALID,92.63,VALID,0,VALID,22.3498,VALID,37,VALID,0.623438,
2009-07-24, 02:13:04,VALID,1010.42,VALID,0,VALID,92.6529,VALID,0,VALID,22.3303,VALID,47,VALID,0.242578,
2009-07-24, 02:14:04,VALID,1010.42,VALID,0,VALID,92.6682,VALID,0,VALID,22.3498,VALID,69,VALID,0.417188,
2009-07-24, 02:15:04,VALID,1010.4,VALID,0,VALID,92.7063,VALID,0,VALID,22.3498,VALID,57,VALID,0.142969,
2009-07-24, 02:16:04,VALID,1010.41,VALID,0,VALID,92.7215,VALID,0.105969,VALID,22.3286,VALID,83,VALID,0.240625,
2009-07-24, 02:17:04,VALID,1010.39,VALID,0,VALID,92.7444,VALID,0.105969,VALID,22.3286,VALID,83,VALID,0.557422,
2009-07-24, 02:18:04,VALID,1010.38,VALID,0,VALID,92.7597,VALID,0.105969,VALID,22.3074,VALID,38,VALID,0.550781,
2009-07-24, 02:19:04,VALID,1010.41,VALID,0,VALID,92.7978,VALID,0.105969,VALID,22.3074,VALID,7,VALID,0.259766,
2009-07-24, 02:20:04,VALID,1010.38,VALID,0,VALID,92.8436,VALID,0.105969,VALID,22.3074,VALID,86,VALID,0.346484,
2009-07-24, 02:21:04,VALID,1010.38,VALID,0,VALID,92.8741,VALID,0.105969,VALID,22.3074,VALID,86,VALID,0.124609,
2009-07-24, 02:22:04,VALID,1010.36,VALID,0,VALID,92.8664,VALID,0.105969,VALID,22.288,VALID,80,VALID,0.187891,
2009-07-24, 02:23:04,VALID,1010.34,VALID,0,VALID,92.8664,VALID,0.105969,VALID,22.3091,VALID,80,VALID,0.0929687,
2009-07-24, 02:24:04,VALID,1010.36,VALID,0,VALID,92.9122,VALID,0.105969,VALID,22.3091,VALID,47,VALID,0.441016,
2009-07-24, 02:25:04,VALID,1010.35,VALID,0,VALID,92.8893,VALID,0.105969,VALID,22.2702,VALID,65,VALID,0.568359,
2009-07-24, 02:26:04,VALID,1010.37,VALID,0,VALID,92.9198,VALID,0.105969,VALID,22.2897,VALID,69,VALID,0.828516,
2009-07-24, 02:27:04,VALID,1010.4,VALID,0,VALID,92.9198,VALID,0.105969,VALID,22.2897,VALID,89,VALID,0.755078,
2009-07-24, 02:28:04,VALID,1010.41,VALID,0,VALID,92.9274,VALID,0.105969,VALID,22.2897,VALID,93,VALID,0.854688,
2009-07-24, 02:29:04,VALID,1010.42,VALID,0,VALID,92.9427,VALID,0.105969,VALID,22.3091,VALID,92,VALID,0.686719,
2009-07-24, 02:30:04,VALID,1010.41,VALID,0,VALID,92.9503,VALID,0.105969,VALID,22.3091,VALID,111,VALID,0.735547,
2009-07-24, 02:31:04,VALID,1010.37,VALID,0,VALID,92.9503,VALID,0,VALID,22.3091,VALID,98,VALID,0.530469,
2009-07-24, 02:32:04,VALID,1010.37,VALID,0,VALID,92.9656,VALID,0.105969,VALID,22.3091,VALID,94,VALID,1.0875,
2009-07-24, 02:33:04,VALID,1010.36,VALID,0,VALID,92.9656,VALID,0.105969,VALID,22.3091,VALID,88,VALID,0.78125,
2009-07-24, 02:34:04,VALID,1010.38,VALID,0,VALID,92.9656,VALID,0.105969,VALID,22.3091,VALID,103,VALID,0.7875,
2009-07-24, 02:35:04,VALID,1010.36,VALID,0,VALID,92.9732,VALID,0,VALID,22.3091,VALID,100,VALID,0.344922,
2009-07-24, 02:36:04,VALID,1010.33,VALID,0,VALID,92.9884,VALID,0,VALID,22.2897,VALID,102,VALID,0.369531,
2009-07-24, 02:37:04,VALID,1010.35,VALID,0,VALID,92.9808,VALID,0,VALID,22.2897,VALID,103,VALID,0,
2009-07-24, 02:38:04,VALID,1010.34,VALID,0,VALID,93.0189,VALID,0.105969,VALID,22.2897,VALID,103,VALID,0,
2009-07-24, 02:39:04,VALID,1010.37,VALID,0,VALID,93.0037,VALID,0,VALID,22.2897,VALID,110,VALID,0.515625,
2009-07-24, 02:40:04,VALID,1010.42,VALID,0,VALID,93.0266,VALID,0,VALID,22.3091,VALID,108,VALID,0.495313,
2009-07-24, 02:41:04,VALID,1010.47,VALID,0,VALID,92.9961,VALID,0.105969,VALID,22.2702,VALID,108,VALID,0.460156,
2009-07-24, 02:42:04,VALID,1010.46,VALID,0,VALID,92.9961,VALID,0.105969,VALID,22.2702,VALID,97,VALID,0.670703,
2009-07-24, 02:43:04,VALID,1010.44,VALID,0,VALID,92.9961,VALID,0.105969,VALID,22.2897,VALID,83,VALID,0.612891,
2009-07-24, 02:44:04,VALID,1010.43,VALID,0,VALID,92.9961,VALID,0.105969,VALID,22.3091,VALID,80,VALID,0.789063,
2009-07-24, 02:45:04,VALID,1010.42,VALID,0,VALID,93.0037,VALID,0.105969,VALID,22.288,VALID,64,VALID,0.833203,
2009-07-24, 02:46:04,VALID,1010.45,VALID,0,VALID,92.9884,VALID,0,VALID,22.2914,VALID,76,VALID,1.00234,
2009-07-24, 02:47:04,VALID,1010.48,VALID,0,VALID,92.9579,VALID,0,VALID,22.2719,VALID,101,VALID,0.815234,
2009-07-24, 02:48:04,VALID,1010.51,VALID,0,VALID,92.9656,VALID,0,VALID,22.2914,VALID,78,VALID,0.812109,
2009-07-24, 02:49:04,VALID,1010.52,VALID,0,VALID,92.9732,VALID,0,VALID,22.2914,VALID,77,VALID,0.477344,
2009-07-24, 02:50:04,VALID,1010.53,VALID,0,VALID,92.9808,VALID,0,VALID,22.2914,VALID,84,VALID,1.13164,
2009-07-24, 02:51:04,VALID,1010.57,VALID,0,VALID,92.9656,VALID,0,VALID,22.2914,VALID,98,VALID,0.998438,
2009-07-24, 02:52:04,VALID,1010.59,VALID,0,VALID,92.9579,VALID,0,VALID,22.2914,VALID,91,VALID,1.24766,
2009-07-24, 02:53:04,VALID,1010.58,VALID,0,VALID,92.9579,VALID,0,VALID,22.2719,VALID,81,VALID,1.33398,
2009-07-24, 02:54:04,VALID,1010.57,VALID,0,VALID,92.9656,VALID,0,VALID,22.2719,VALID,81,VALID,1.22187,
2009-07-24, 02:55:04,VALID,1010.53,VALID,0,VALID,93.0037,VALID,0,VALID,22.2719,VALID,71,VALID,0.849609,
2009-07-24, 02:56:04,VALID,1010.54,VALID,0,VALID,92.9884,VALID,0,VALID,22.2719,VALID,70,VALID,1.15547,
2009-07-24, 02:57:04,VALID,1010.56,VALID,0,VALID,92.9884,VALID,0,VALID,22.2524,VALID,77,VALID,0.74375,
2009-07-24, 02:58:04,VALID,1010.57,VALID,0,VALID,93.0113,VALID,0,VALID,22.2329,VALID,58,VALID,0.511328,
2009-07-24, 02:59:04,VALID,1010.59,VALID,0,VALID,93.0189,VALID,0,VALID,22.2329,VALID,92,VALID,0.508203,
2009-07-24, 03:00:04,VALID,1010.59,VALID,0,VALID,93.0418,VALID,0,VALID,22.2329,VALID,100,VALID,0.792188,
2009-07-24, 03:01:04,VALID,1010.56,VALID,0,VALID,93.0723,VALID,0,VALID,22.2524,VALID,86,VALID,0.436328,
2009-07-24, 03:02:04,VALID,1010.58,VALID,0,VALID,93.0647,VALID,0,VALID,22.2312,VALID,50,VALID,0.88125,
2009-07-24, 03:03:04,VALID,1010.52,VALID,0,VALID,93.0876,VALID,0.105969,VALID,22.2118,VALID,67,VALID,0.851563,
2009-07-24, 03:04:04,VALID,1010.53,VALID,0,VALID,93.1105,VALID,0,VALID,22.2118,VALID,66,VALID,0.821875,
2009-07-24, 03:05:04,VALID,1010.51,VALID,0,VALID,93.1028,VALID,0.105969,VALID,22.1923,VALID,44,VALID,0.335938,
2009-07-24, 03:06:04,VALID,1010.54,VALID,0,VALID,93.1257,VALID,0.105969,VALID,22.2118,VALID,67,VALID,0.56875,
2009-07-24, 03:07:04,VALID,1010.52,VALID,0,VALID,93.1333,VALID,0,VALID,22.1923,VALID,2,VALID,0.320703,
2009-07-24, 03:08:04,VALID,1010.55,VALID,0,VALID,93.1486,VALID,0,VALID,22.1923,VALID,66,VALID,0.865625,
2009-07-24, 03:09:04,VALID,1010.54,VALID,0,VALID,93.1486,VALID,0,VALID,22.1906,VALID,86,VALID,1.03125,
2009-07-24, 03:10:04,VALID,1010.57,VALID,0,VALID,93.1486,VALID,0,VALID,22.2118,VALID,62,VALID,0.851953,
2009-07-24, 03:11:04,VALID,1010.59,VALID,0,VALID,93.1638,VALID,0,VALID,22.2134,VALID,84,VALID,0.729688,
2009-07-24, 03:12:04,VALID,1010.6,VALID,0,VALID,93.1638,VALID,0.105969,VALID,22.1923,VALID,83,VALID,0.378516,
2009-07-24, 03:13:04,VALID,1010.59,VALID,0,VALID,93.1791,VALID,0,VALID,22.1923,VALID,101,VALID,0.879687,
2009-07-24, 03:14:04,VALID,1010.59,VALID,0,VALID,93.1638,VALID,0.105969,VALID,22.1923,VALID,73,VALID,0.700391,
2009-07-24, 03:15:04,VALID,1010.54,VALID,0,VALID,93.1791,VALID,0,VALID,22.2118,VALID,74,VALID,0.397266,
2009-07-24, 03:16:04,VALID,1010.53,VALID,0,VALID,93.1867,VALID,0,VALID,22.2134,VALID,54,VALID,0.830859,
2009-07-24, 03:17:04,VALID,1010.51,VALID,0,VALID,93.1638,VALID,0,VALID,22.194,VALID,102,VALID,0.835938,
2009-07-24, 03:18:04,VALID,1010.49,VALID,0,VALID,93.1867,VALID,0,VALID,22.2134,VALID,78,VALID,0.607813,
2009-07-24, 03:19:04,VALID,1010.51,VALID,0,VALID,93.1943,VALID,0,VALID,22.2134,VALID,88,VALID,0.377734,
2009-07-24, 03:20:04,VALID,1010.54,VALID,0,VALID,93.1715,VALID,0,VALID,22.2346,VALID,88,VALID,0.899609,
2009-07-24, 03:21:04,VALID,1010.53,VALID,0,VALID,93.1943,VALID,0,VALID,22.194,VALID,71,VALID,0.891406,
2009-07-24, 03:22:04,VALID,1010.51,VALID,0,VALID,93.1791,VALID,0,VALID,22.194,VALID,75,VALID,1.23906,
2009-07-24, 03:23:04,VALID,1010.51,VALID,0,VALID,93.1486,VALID,0,VALID,22.2151,VALID,79,VALID,0.951953,
2009-07-24, 03:24:04,VALID,1010.51,VALID,0,VALID,93.1333,VALID,0,VALID,22.2134,VALID,70,VALID,1.4875,
2009-07-24, 03:25:04,VALID,1010.5,VALID,0,VALID,93.1333,VALID,0,VALID,22.2134,VALID,83,VALID,0.527734,
2009-07-24, 03:26:04,VALID,1010.48,VALID,0,VALID,93.1105,VALID,0,VALID,22.2329,VALID,66,VALID,0.481641,
2009-07-24, 03:27:04,VALID,1010.51,VALID,0,VALID,93.1028,VALID,0,VALID,22.2134,VALID,71,VALID,0.546094,
2009-07-24, 03:28:04,VALID,1010.54,VALID,0,VALID,93.0952,VALID,0,VALID,22.2134,VALID,54,VALID,0.425,
2009-07-24, 03:29:04,VALID,1010.52,VALID,0,VALID,93.0723,VALID,0,VALID,22.2134,VALID,46,VALID,0.177344,
2009-07-24, 03:30:04,VALID,1010.49,VALID,0,VALID,93.0647,VALID,0,VALID,22.2329,VALID,104,VALID,0.475,
2009-07-24, 03:31:04,VALID,1010.48,VALID,0,VALID,93.0647,VALID,0.105969,VALID,22.2312,VALID,42,VALID,0.354297,
2009-07-24, 03:32:04,VALID,1010.47,VALID,0,VALID,93.0494,VALID,0,VALID,22.2312,VALID,4,VALID,0.334375,
2009-07-24, 03:33:04,VALID,1010.5,VALID,0,VALID,93.0647,VALID,0.105969,VALID,22.2312,VALID,72,VALID,0.154297,
2009-07-24, 03:34:04,VALID,1010.5,VALID,0,VALID,93.0494,VALID,0,VALID,22.2118,VALID,87,VALID,0.903906,
2009-07-24, 03:35:04,VALID,1010.48,VALID,0,VALID,93.0266,VALID,0.105969,VALID,22.2118,VALID,84,VALID,0.939062,
2009-07-24, 03:36:04,VALID,1010.47,VALID,0,VALID,93.0342,VALID,0.105969,VALID,22.2118,VALID,59,VALID,0.756641,
2009-07-24, 03:37:04,VALID,1010.46,VALID,0,VALID,93.0342,VALID,0.105969,VALID,22.2118,VALID,78,VALID,0.505859,
2009-07-24, 03:38:04,VALID,1010.52,VALID,0,VALID,93.0494,VALID,0.105969,VALID,22.2101,VALID,87,VALID,0.679688,
2009-07-24, 03:39:04,VALID,1010.49,VALID,0,VALID,93.0418,VALID,0,VALID,22.2312,VALID,93,VALID,1.1,